User: anonymous
Location: Fort Wayne
(41.1310°N, 85.1290°W)
Time: 00:47:22
(UTC-04:00)
Language:

Meteor 2-10 Rocket - Orbit

View from above orbital plane
View from above orbital plane
View from above satellite
View from above satellite

Ground track
Ground track

The orbit data is extracted from the following two-line orbital elements,

1 14453U 83109B   14294.33618603  .00000184  00000-0  70166-4 0  2617
2 14453 081.1686 001.8929 0104497 349.7390 079.1881 14.24523882609444
Epoch (UTC): 21 October 2014 08:04:06
Eccentricity: 0.0104497
inclination: 81.1686°
perigee height: 735 km
apogee height: 885 km
right ascension of ascending node: 1.8929°
argument of perigee: 349.7390°
revolutions per day: 14.24523882
mean anomaly at epoch: 79.1881°
orbit number at epoch: 60944

The dashed part of the orbit path shows where the satellite is in the earth's shadow,  

DLR